Location: Asbacherhof
(48.8543°N, 10.7903°E)
Time: 21:39:02
(UTC+00:00)

CZ-2C R/B - Pass Details

Date: 26 May 2022
Orbit: 667 x 784 km, 98.3° (Epoch: 29 June)

Event Time Altitude Azimuth Distance (km) Brightness Sun altitude
Rises 02:31:22 0° 17° (NNE) 3,275 7.0 -7.4°
Reaches altitude 10° 02:33:47 10° 23° (NNE) 2,334 6.3 -7.1°
Maximum altitude 02:38:48 51° 99° (E) 955 3.3 -6.5°
Drops below altitude 10° 02:43:40 10° 176° (S) 2,258 4.6 -5.9°
Sets 02:45:58 0° 181° (S) 3,159 5.3 -5.6°
